Location: Seattle
(47.6064°N, 122.3308°W)
Time: 11:09:45
(UTC-07:00)

Explorer 7 - Pass Details

Date: 08 August 2021
Orbit: 484 x 676 km, 50.3° (Epoch: 22 September)

Event Time Altitude Azimuth Distance (km) Brightness Sun altitude
Exits shadow 03:29:30 37° 146° (SE) 764 7.3 -19.6°
Drops below altitude 10° 03:33:00 10° 79° (ENE) 1,685 9.9 -19.3°
Sets 03:35:18 0° 71° (ENE) 2,588 11.2 -19.1°
